User: anonymous   Login
Location: Unspecified
(0.0000°N, 0.0000°E)
Time: 21:02:52
(UTC+00:00)
Language:

AO-7 - Orbit

View from above orbital plane
View from above orbital plane
View from above satellite
View from above satellite

Ground track
Ground track

The orbit data is extracted from the following two-line orbital elements,

1  7530U 74089B   19177.45723444 -.00000030  00000-0  96862-4 0  9990
2  7530 101.7440 145.0383 0012048 334.4770 136.2732 12.53638684 41499
Epoch (UTC): 26 June 2019 10:58:25
Eccentricity: 0.0012048
inclination: 101.7440°
perigee height: 1440 km
apogee height: 1459 km
right ascension of ascending node: 145.0383°
argument of perigee: 334.4770°
revolutions per day: 12.53638684
mean anomaly at epoch: 136.2732°
orbit number at epoch: 4149

The dashed part of the orbit path shows where the satellite is in the earth's shadow,  

DLR